Location: Hawaiian Village Mobile Home Park
(32.8359°N, 116.9792°W)
Time: 03:22:22
(UTC+00:00)

ADEOS - Pass Details

Date: 05 December 2021
Orbit: 792 x 795 km, 98.9° (Epoch: 23 January)

Event Time Altitude Azimuth Distance (km) Brightness Sun altitude
Rises 01:45:38 0° 209° (SSW) 3,280 7.5 -13.3°
Reaches altitude 10° 01:48:57 10° 231° (SW) 2,356 7.2 -14.0°
Maximum altitude 01:51:54 15° 266° (W) 2,018 6.8 -14.6°
Drops below altitude 10° 01:54:52 10° 301° (WNW) 2,365 6.6 -15.2°
Sets 01:58:14 0° 324° (NW) 3,299 7.0 -15.9°
